[TLELIST] Archives

 

[TLELIST] Current TLEs

June 26th 2026 PDT

0 HST 1 20580U 90037B 26177.27036609 .00007290 00000-0 22994-3 0 9997 2 20580 28.4732 18.4928 0001404 251.2839 108.7605 15.30848043789966 0 ISS (ZARYA) 1 25544U 98067A 26177.15504249 .00009461 00000-0 17697-3 0 9996 2 25544 51.6325 255.7018 0004359 233.1468 126.9121 15.49434804573144 0 CXO 1 25867U 99040B 26179.95532601 .00000592 00000-0 00000-0 0 9992 2 25867 56.3077 116.3625 7815439 310.1470 0.3486 0.37796038 17366 ...Continue Reading

[TLELIST] Current TLEs

June 25th 2026 PDT

0 HST 1 20580U 90037B 26175.96652655 .00007148 00000-0 22544-3 0 9999 2 20580 28.4728 27.4055 0001442 233.5980 126.4483 15.30829347789769 0 ISS (ZARYA) 1 25544U 98067A 26176.18758125 .00009470 00000-0 17725-3 0 9994 2 25544 51.6326 260.4913 0004409 228.8642 131.1966 15.49415960572992 0 CXO 1 25867U 99040B 26177.31113606 .00000484 00000-0 00000-0 0 9990 2 25867 56.2784 116.4107 7818645 310.1913 0.3296 0.37800874 17352 ...Continue Reading

[TLELIST] Current TLEs

June 24th 2026 PDT

0 HST 1 20580U 90037B 26174.98863599 .00006014 00000-0 18861-3 0 9999 2 20580 28.4728 34.0889 0001455 220.4821 139.5667 15.30816101789618 0 ISS (ZARYA) 1 25544U 98067A 26175.15560926 .00007363 00000-0 13975-3 0 9992 2 25544 51.6326 265.6000 0004427 224.4953 135.5681 15.49396189572839 0 CXO 1 25867U 99040B 26177.31113606 .00000484 00000-0 00000-0 0 9990 2 25867 56.2784 116.4107 7818645 310.1913 0.3296 0.37800874 17352 ...Continue Reading

[TLELIST] Current TLEs

June 23rd 2026 PDT

0 HST 1 20580U 90037B 26173.68477009 .00005473 00000-0 17108-3 0 9993 2 20580 28.4724 43.0006 0001526 203.6425 156.4101 15.30802244789419 0 ISS (ZARYA) 1 25544U 98067A 26173.73662978 .00008151 00000-0 15395-3 0 9998 2 25544 51.6325 272.6245 0004456 218.9710 141.0958 15.49373286572616 0 CXO 1 25867U 99040B 26174.66694589 .00000425 00000-0 00000-0 0 9994 2 25867 56.2626 116.4520 7822537 310.2350 0.3190 0.37805674 17342 ...Continue Reading

[TLELIST] Current TLEs

June 22nd 2026 PDT

0 HST 1 20580U 90037B 26171.07700591 .00005529 00000-0 17304-3 0 9999 2 20580 28.4722 60.8244 0001640 173.2571 186.8048 15.30775367789017 0 ISS (ZARYA) 1 25544U 98067A 26172.76913116 .00009060 00000-0 17028-3 0 9998 2 25544 51.6326 277.4139 0004499 214.6152 145.4544 15.49357580572463 0 CXO 1 25867U 99040B 26172.02247085 .00000453 00000-0 00000-0 0 9998 2 25867 56.2474 116.4966 7828330 310.2765 0.2930 0.37807394 17335 ...Continue Reading

[TLELIST] Current TLEs

June 21st 2026 PDT

0 HST 1 20580U 90037B 26171.07700591 .00005529 00000-0 17304-3 0 9999 2 20580 28.4722 60.8244 0001640 173.2571 186.8048 15.30775367789017 0 ISS (ZARYA) 1 25544U 98067A 26171.41461525 .00008813 00000-0 16600-3 0 9991 2 25544 51.6327 284.1189 0004557 208.5194 151.5545 15.49333088572250 0 CXO 1 25867U 99040B 26172.02247085 .00000453 00000-0 00000-0 0 9998 2 25867 56.2474 116.4966 7828330 310.2765 0.2930 0.37807394 17335 ...Continue Reading

[TLELIST] Current TLEs

June 20th 2026 PDT

0 HST 1 20580U 90037B 26171.07700591 .00005529 00000-0 17304-3 0 9999 2 20580 28.4722 60.8244 0001640 173.2571 186.8048 15.30775367789017 0 ISS (ZARYA) 1 25544U 98067A 26171.15661001 .00008669 00000-0 16345-3 0 9998 2 25544 51.6329 285.3962 0004555 207.7610 152.3136 15.49327998572210 0 CXO 1 25867U 99040B 26172.02247085 .00000453 00000-0 00000-0 0 9998 2 25867 56.2474 116.4966 7828330 310.2765 0.2930 0.37807394 17335 ...Continue Reading

[TLELIST] Current TLEs

June 19th 2026 PDT

0 HST 1 20580U 90037B 26170.09908245 .00005359 00000-0 16756-3 0 9997 2 20580 28.4721 67.5085 0001724 162.4358 197.6298 15.30765373788864 0 ISS (ZARYA) 1 25544U 98067A 26170.06007799 .00009022 00000-0 16988-3 0 9992 2 25544 51.6331 290.8234 0004653 203.3119 156.7659 15.49309015572040 0 CXO 1 25867U 99040B 26172.02247085 .00000453 00000-0 00000-0 0 9998 2 25867 56.2474 116.4966 7828330 310.2765 0.2930 0.37807394 17335 ...Continue Reading

[TLELIST] Current TLEs

June 18th 2026 PDT

0 HST 1 20580U 90037B 26169.12115247 .00005032 00000-0 15694-3 0 9999 2 20580 28.4721 74.1921 0001767 152.2420 207.8270 15.30755230788710 0 ISS (ZARYA) 1 25544U 98067A 26169.15704105 .00009674 00000-0 18166-3 0 9998 2 25544 51.6334 295.2921 0004743 200.3344 159.7456 15.49293017571908 0 CXO 1 25867U 99040B 26172.02247085 .00000453 00000-0 00000-0 0 9998 2 25867 56.2474 116.4966 7828330 310.2765 0.2930 0.37807394 17335 ...Continue Reading

[TLELIST] Current TLEs

June 17th 2026 PDT

0 HST 1 20580U 90037B 26168.14321654 .00005620 00000-0 17616-3 0 9990 2 20580 28.4720 80.8753 0001816 141.8279 218.2446 15.30747004788561 0 ISS (ZARYA) 1 25544U 98067A 26168.18949189 .00009113 00000-0 17172-3 0 9997 2 25544 51.6332 300.0813 0004737 195.1146 164.9702 15.49273435571752 0 CXO 1 25867U 99040B 26169.37713324 .00000529 00000-0 00000-0 0 9990 2 25867 56.2189 116.5542 7835469 310.3049 0.1821 0.37804062 17322 ...Continue Reading
  • This mailing list is a public mailing list - anyone may join or leave, at any time.
  • This mailing list is announce-only.

International Space Station (ISS) / Hubble Space Telescope (HST) / Chandra X-Ray Observatory Orbital Data via EMAIL

Privacy Policy:

Private list